This is the latest recevied weather packets stored in our database for station/object N5CNB. If no packets are shown the sender has not sent any weather packets the latest 10 day(s).
| Time | Temp. | Humidity | Pressure | Rain* | Wind** | Luminosity | Snow |
|---|---|---|---|---|---|---|---|
| 1777675521 | 14.44° C | 92% | 1012.2 hPa | 3.05 mm | - | - | - |
| 1777673726 | 15° C | 91% | 1010 hPa | 2.03 mm | - | - | - |
| 1777672810 | 15° C | 91% | 1010.9 hPa | 1.78 mm | - | - | - |
| 1777671919 | 15° C | 91% | 1010.9 hPa | 0.25 mm | - | - | - |
| 1777670107 | 15.56° C | 91% | 1010.3 hPa | 0.51 mm | - | - | - |
| 1777669211 | 15.56° C | 92% | 1010.8 hPa | 1.52 mm | - | - | - |
| 1777668317 | 15.56° C | 92% | 1011.3 hPa | 1.78 mm | - | - | - |
| 1777667423 | 15.56° C | 92% | 1011.2 hPa | 2.03 mm | - | - | - |
| 1777666522 | 15.56° C | 92% | 1010.6 hPa | 2.29 mm | - | - | - |
| 1777665626 | 15.56° C | 92% | 1011.1 hPa | 3.3 mm | - | - | - |
| 1777663832 | 16.11° C | 93% | 1010.7 hPa | 5.33 mm | - | - | - |
| 1777662928 | 16.11° C | 92% | 1010.6 hPa | 4.83 mm | - | - | - |
| 1777662045 | 16.11° C | 92% | 1010.6 hPa | 2.79 mm | - | - | - |
| 1777661134 | 16.11° C | 92% | 1010.6 hPa | 0.25 mm | - | - | - |
| 1777660220 | 16.11° C | 92% | 1009.7 hPa | 0 mm | - | - | - |
| 1777659317 | 16.11° C | 92% | 1009.8 hPa | 0 mm | - | - | - |
| 1777658419 | 16.11° C | 92% | 1010.2 hPa | 0.76 mm | - | - | - |
| 1777657527 | 16.11° C | 93% | 1009.8 hPa | 1.78 mm | - | - | - |
| 1777656626 | 15.56° C | 93% | 1008.5 hPa | 2.54 mm | - | - | - |
| 1777655716 | 15.56° C | 93% | 1009.5 hPa | 3.3 mm | - | - | - |
| 1777654817 | 15.56° C | 93% | 1011.9 hPa | 3.05 mm | - | - | - |
| 1777653928 | 15.56° C | 93% | 1013 hPa | 3.3 mm | - | - | - |
| 1777653025 | 15.56° C | 93% | 1013 hPa | 3.3 mm | - | - | - |
| 1777652126 | 15.56° C | 92% | 1012.8 hPa | 4.32 mm | - | - | - |
| 1777651217 | 15.56° C | 93% | 1013 hPa | 6.6 mm | - | - | - |
* Rain latest hour (hover to see other rain measurements)
** Current wind speed in m/s (hover to see current wind gust speed)